Le nostre stazioni meteo in Italia

Pubblicità
Il mio iltempo24.it
Grazzanise, Italia (16253): Temperatura & dewpoint: 04.04.2020 05:00:00 - 10.04.2020 05:00:00 (CEST)Grazzanise, Italia (16253): velocità del vento: 04.04.2020 05:00:00 - 10.04.2020 05:00:00 (CEST)Grazzanise, Italia (16253): direzione del vento: 04.04.2020 05:00:00 - 10.04.2020 05:00:00 (CEST)Grazzanise, Italia (16253): reduced air pressure: 04.04.2020 05:00:00 - 10.04.2020 05:00:00 (CEST)Grazzanise, Italia (16253): visibility: 04.04.2020 05:00:00 - 10.04.2020 05:00:00 (CEST)Grazzanise, Italia (16253): ore di luce: 04.04.2020 05:00:00 - 10.04.2020 05:00:00 (CEST)
Data & Tempo tt [°C] td [°C] ff [km/h] ff [kn] dd ppp [hPa] vv [km] sd [min]
10.04.2020 05:00:00 7,0 4,7 8 4 NE 1021,4 4,0 -
10.04.2020 04:00:00 7,0 5,0 5 3 E - 3,0 -
10.04.2020 03:00:00 7,0 6,0 4 2 N - 2,0 -
10.04.2020 02:00:00 10,0 8,4 4 2 N 1021,7 3,0 -
10.04.2020 01:00:00 7,0 6,0 4 2 N - 4,0 -
10.04.2020 00:00:00 7,0 6,0 0 0 N - 5 -
09.04.2020 23:00:00 9,0 8,4 0 0 N 1021,1 6 -
09.04.2020 22:00:00 12,0 11,0 4 2 SSE - 10 -
09.04.2020 21:00:00 14,0 12,0 5 3 SSO - 10 -
09.04.2020 20:00:00 14,0 13,2 8 4 SSO 1020,4 10 -
09.04.2020 19:00:00 16,0 14,0 9 5 OSO - 10 -
09.04.2020 18:00:00 17,0 13,0 18 10 O - 10 -
09.04.2020 17:00:00 18,4 12,4 18 10 O 1020,3 15 60
09.04.2020 16:00:00 19,0 10,0 18 10 OSO - 10 -
09.04.2020 15:00:00 20,0 10,0 18 10 O - 10 -
09.04.2020 14:00:00 20,2 3,0 15 8 OSO 1021,3 15 60
09.04.2020 13:00:00 20,0 -4,0 4 2 SSE - 10 -
09.04.2020 12:00:00 18,0 -1,0 4 2 O - 10 -
09.04.2020 11:00:00 16,6 -2,0 4 2 NE 1022,6 10 60
09.04.2020 10:00:00 14,0 2,0 8 4 NE - 10 -
09.04.2020 09:00:00 10,0 4,0 8 4 NE - 10 -
09.04.2020 08:00:00 6,0 1,3 11 6 NE 1022,6 10 60
09.04.2020 07:00:00 4,0 1,0 5 3 N - 10 -
09.04.2020 06:00:00 4,0 3,0 5 3 N - 10 -
09.04.2020 05:00:00 4,0 2,5 8 4 N 1021,3 15 -
09.04.2020 04:00:00 5,0 4,0 4 2 ONO - 10 -
09.04.2020 03:00:00 6,0 5,0 8 4 NNE - 10 -
09.04.2020 02:00:00 6,0 5,4 5 3 NE 1022,3 15 -
09.04.2020 01:00:00 6,0 6,0 5 3 NNE - 10 -
09.04.2020 00:00:00 7,0 7,0 8 4 NE - 10 -
08.04.2020 23:00:00 8,2 7,4 4 2 N 1022,4 15 -
08.04.2020 22:00:00 9,0 8,0 4 2 O - 10 -
08.04.2020 21:00:00 11,0 10,0 5 3 SSO - 10 -
08.04.2020 20:00:00 13,4 11,8 4 2 S 1022,1 15 18
08.04.2020 19:00:00 15,0 12,0 9 5 OSO - 10 -
08.04.2020 18:00:00 17,0 12,0 15 8 O - 10 -
08.04.2020 17:00:00 18,0 5,2 16 9 O 1022,2 20 60
08.04.2020 16:00:00 19,0 3,0 22 12 O - 10 -
08.04.2020 15:00:00 19,0 2,0 21 11 O - 10 -
08.04.2020 14:00:00 20,0 1,9 18 10 OSO 1023,1 20 60
08.04.2020 13:00:00 20,0 0,0 5 3 SSO - 10 -
08.04.2020 12:00:00 19,0 3,0 5 3 ENE - 10 -
08.04.2020 11:00:00 17,2 4,9 8 4 NNE 1025,2 20 60
08.04.2020 10:00:00 14,0 8,0 5 3 NNE - 10 -
08.04.2020 09:00:00 11,0 7,0 4 2 NNO - 10 -
08.04.2020 08:00:00 8,0 4,2 13 7 NE 1025,7 20 0
08.04.2020 07:00:00 4,0 2,0 9 5 N - 10 -
08.04.2020 06:00:00 4,0 3,0 5 3 NO - 10 -
08.04.2020 05:00:00 5,0 3,5 5 3 NE 1026,4 20 -
08.04.2020 04:00:00 5,0 4,0 8 4 NNE - 10 -
08.04.2020 03:00:00 6,0 4,0 4 2 NNO - 10 -
08.04.2020 02:00:00 6,0 5,3 9 5 NNE 1026,1 20 -
08.04.2020 01:00:00 8,0 7,0 4 2 OSO - 10 -
08.04.2020 00:00:00 8,0 8,0 4 2 N - 10 -
07.04.2020 23:00:00 8,4 7,7 4 2 NNO 1025,8 20 -
07.04.2020 22:00:00 10,0 9,0 5 3 NE - 10 -
07.04.2020 21:00:00 12,0 10,0 4 2 NNO - 10 -
07.04.2020 20:00:00 13,0 10,4 5 3 SO 1025,1 20 -
07.04.2020 19:00:00 16,0 11,0 11 6 O - 10 -
07.04.2020 18:00:00 17,0 7,0 18 10 O - 10 -
07.04.2020 17:00:00 19,2 6,0 18 10 O 1024,1 20 60
07.04.2020 16:00:00 20,0 6,0 18 10 O - 10 -
07.04.2020 15:00:00 22,0 0,0 15 8 E - 10 -
07.04.2020 14:00:00 20,8 0,6 15 8 NE 1024,8 20 60
07.04.2020 13:00:00 20,0 1,0 8 4 ESE - 10 -
07.04.2020 12:00:00 20,0 2,0 11 6 NE - 10 -
07.04.2020 11:00:00 18,6 2,9 11 6 ENE 1026,1 20 60
07.04.2020 10:00:00 16,0 5,0 11 6 NE - 10 -
07.04.2020 09:00:00 13,0 5,0 11 6 NNE - 10 -
07.04.2020 08:00:00 6,2 4,7 9 5 N 1026,1 20 12
07.04.2020 07:00:00 5,0 4,0 8 4 N - 10 -
07.04.2020 06:00:00 5,0 4,0 5 3 NNE - 10 -
07.04.2020 05:00:00 6,0 5,4 11 6 N 1024,9 10 -
07.04.2020 04:00:00 7,0 6,0 9 5 N - 10 -
07.04.2020 03:00:00 8,0 7,0 11 6 N - 10 -
07.04.2020 02:00:00 8,0 6,9 13 7 NNE 1025,0 10 -
07.04.2020 01:00:00 8,0 7,0 11 6 NNO - 10 -
07.04.2020 00:00:00 9,0 7,0 9 5 NNE - 10 -
06.04.2020 23:00:00 8,0 7,2 8 4 N 1025,0 10 -
06.04.2020 22:00:00 10,0 8,0 4 2 NNE - 10 -
06.04.2020 21:00:00 13,0 10,0 4 2 S - 10 -
06.04.2020 20:00:00 15,8 12,7 0 0 N 1023,4 10 -
06.04.2020 19:00:00 15,0 12,0 4 2 ONO - 10 -
06.04.2020 18:00:00 16,0 12,0 4 2 OSO - 10 -
06.04.2020 17:00:00 18,4 5,3 15 8 E 1022,6 15 0
06.04.2020 16:00:00 20,0 5,0 22 12 E - 10 -
06.04.2020 15:00:00 21,0 5,0 22 12 ENE - 10 -
06.04.2020 14:00:00 20,2 4,3 28 15 ENE 1022,4 15 48
06.04.2020 13:00:00 20,0 5,0 26 14 E - 10 -
06.04.2020 12:00:00 20,0 5,0 22 12 E - 10 -
06.04.2020 11:00:00 19,0 6,8 22 12 ENE 1021,4 15 60
06.04.2020 10:00:00 16,0 8,0 21 11 ENE - 10 -
06.04.2020 09:00:00 13,0 7,0 18 10 ENE - 10 -
06.04.2020 08:00:00 12,0 6,7 18 10 NE 1021,0 15 12
06.04.2020 07:00:00 10,0 6,0 11 6 NE - 10 -
06.04.2020 06:00:00 8,0 6,0 9 5 NE - 10 -
06.04.2020 05:00:00 9,2 6,1 5 3 NNE 1019,9 20 -
06.04.2020 04:00:00 9,0 6,0 4 2 N - 10 -
06.04.2020 03:00:00 9,0 5,0 5 3 NNE - 10 -
06.04.2020 02:00:00 9,0 4,4 5 3 N 1020,2 12 -
06.04.2020 01:00:00 10,0 4,0 5 3 N - 10 -
06.04.2020 00:00:00 12,0 6,0 4 2 E - 10 -
05.04.2020 23:00:00 11,8 6,7 2 1 ESE 1019,4 20 -
05.04.2020 22:00:00 11,0 8,0 4 2 NNO - 10 -
05.04.2020 21:00:00 12,0 7,0 5 3 NNE - 10 -
05.04.2020 20:00:00 15,4 3,5 11 6 E 1017,6 20 -
05.04.2020 19:00:00 16,0 3,0 8 4 E - 10 -
05.04.2020 18:00:00 17,0 2,0 9 5 NE - 10 -
05.04.2020 17:00:00 18,6 2,9 16 9 NE 1016,3 20 0
05.04.2020 16:00:00 20,0 3,0 8 4 NE - 10 -
05.04.2020 15:00:00 20,0 2,0 21 11 NO - 10 -
05.04.2020 14:00:00 20,4 2,7 9 5 NNO 1016,5 22 60
05.04.2020 13:00:00 20,0 3,0 4 2 E - 10 -
05.04.2020 12:00:00 18,0 3,0 15 8 N - 10 -
05.04.2020 11:00:00 16,6 5,2 16 9 N 1017,0 20 60
05.04.2020 10:00:00 15,0 5,0 15 8 N - 10 -
05.04.2020 09:00:00 13,0 4,0 24 13 N - 10 -
05.04.2020 08:00:00 10,6 2,4 21 11 N 1016,6 22 -
05.04.2020 07:00:00 11,0 2,0 15 8 N - 10 -
05.04.2020 06:00:00 11,0 1,0 16 9 N - 10 -
05.04.2020 05:00:00 11,0 0,7 18 10 NNO 1016,5 15 -
05.04.2020 04:00:00 11,0 0,0 16 9 N - 10 -
05.04.2020 03:00:00 10,0 0,0 13 7 NNE - 10 -
05.04.2020 02:00:00 9,8 0,4 8 4 NNE 1016,8 16 -
05.04.2020 01:00:00 8,0 -1,0 9 5 NE - 10 -
05.04.2020 00:00:00 6,0 1,0 8 4 NNO - 10 -
04.04.2020 23:00:00 6,4 0,9 4 2 NNO 1016,8 14 -
04.04.2020 22:00:00 9,0 -1,0 4 2 N - 10 -
04.04.2020 21:00:00 12,0 -2,0 9 5 NNE - 10 -
04.04.2020 20:00:00 13,0 -5,5 15 8 NNE 1015,7 16 -
04.04.2020 19:00:00 16,0 -3,0 21 11 N - 10 -
04.04.2020 18:00:00 18,0 -2,0 28 15 N - 10 -
04.04.2020 17:00:00 18,0 -2,3 26 14 N 1014,2 18 60
04.04.2020 16:00:00 20,0 0,0 22 12 N - 10 -
04.04.2020 15:00:00 20,0 1,0 18 10 NNE - 10 -
04.04.2020 14:00:00 18,0 6,2 11 6 O 1014,3 14 60
04.04.2020 13:00:00 19,0 3,0 9 5 NNE - 10 -
04.04.2020 12:00:00 18,0 3,0 4 2 NNE - 10 -
04.04.2020 11:00:00 17,2 2,8 4 2 ESE 1015,2 14 60
04.04.2020 10:00:00 15,0 4,0 5 3 S - 10 -
04.04.2020 09:00:00 9,0 5,0 2 1 NNO - 10 -
04.04.2020 08:00:00 4,4 3,5 5 3 NNO 1014,0 12 18
04.04.2020 07:00:00 2,0 1,0 9 5 N - 10 -
04.04.2020 06:00:00 2,0 2,0 11 6 NNE - 10 -
04.04.2020 05:00:00 3,6 2,1 11 6 NNE 1013,2 20 -

tt = Temperatura
td = dewpoint
ff = velocità del vento
dd = direzione del vento
ppp = reduced air pressure
vv = visibility
sd = ore di luce

Stazioni seguenti

WeatherPro
AMSI
MeteoEarth